Concord, NH

5:43 AM EDT on August 26, 2016 (GMT -0400)
Concord Municipal

Weather History for KCON - October, 2014

Change the Weather History Date:

Friday, October 3, 2014

  Actual Average Record
Temperature  
Mean Temperature 54 °F 53 °F  
Max Temperature 67 °F 66 °F 84 °F (1953)
Min Temperature 41 °F 40 °F 23 °F (1897)
Degree Days  
Heating Degree Days 11 12  
Month to date heating degree days 30 36  
Since 1 July heating degree days 251 271  
Cooling Degree Days 0 0  
Month to date cooling degree days 0 0  
Year to date cooling degree days 381 450  
Growing Degree Days 4 (Base 50)    
Moisture  
Dew Point 46 °F    
Average Humidity 72    
Maximum Humidity 100    
Minimum Humidity 44    
Precipitation  
Precipitation 0.00 in 0.13 in 1.16 in (1985)
Month to date precipitation 0.49 0.39  
Year to date precipitation 33.79 30.04  
Snow  
Snow 0.00 in 0.00 in T in (1945)
Month to date snowfall 0.0 0.0  
Since 1 July snowfall 0.0 0.0  
Since 1 September snowfall 0.0 0.0  
Snow Depth 0.00 in    
Sea Level Pressure  
Sea Level Pressure 30.08 in    
Wind  
Wind Speed 3 mph (ESE)    
Max Wind Speed 10 mph    
Max Gust Speed 14 mph    
Visibility 5 miles    
Events Fog    
T = Trace of Precipitation, MM = Missing Value Source: NWS Daily Summary

Daily Weather History Graph

Daily Weather History Graph

Search for Another Location

Airport or City:

Trip Planner

Search our weather history database for the weather conditions in past years. The results will help you decide how hot, cold, wet, or windy it might be!

Date:

Astronomy

Oct. 03, 2014 Rise Set
Actual Time 6:45 AM EDT 6:23 PM EDT
Civil Twilight 6:17 AM EDT 6:52 PM EDT
Nautical Twilight 5:44 AM EDT 7:24 PM EDT
Astronomical Twilight 5:10 AM EDT 7:58 PM EDT
Moon 3:22 PM EDT (10/3) 12:54 AM EDT (10/3)
Length of Visible Light 12h 34m
Length of Day
11h 38m
Waxing Gibbous, 71% of the Moon is Illuminated
Oct 3
Waxing Gibbous
Oct 8
Full
Oct 15
Last Quarter
Oct 23
New
Oct 30
First Quarter

Hourly Weather History & Observations

Time (EDT) Temp. Windchill Dew Point Humidity Pressure Visibility Wind Dir Wind Speed Gust Speed Precip Events Conditions
12:05 AM 44.1 °F - 43.0 °F 96% 30.17 in 1.8 mi Calm Calm - N/A   Mostly Cloudy
12:08 AM 45.0 °F - 44.1 °F 97% 30.17 in 0.8 mi Calm Calm - N/A   Overcast
12:21 AM 44.1 °F - 44.1 °F 100% 30.18 in 1.8 mi Calm Calm - N/A   Overcast
12:28 AM 45.0 °F - 44.1 °F 97% 30.18 in 1.2 mi Calm Calm - N/A   Overcast
12:33 AM 45.0 °F - 44.1 °F 97% 30.18 in 0.2 mi Calm Calm - N/A Fog Fog
12:42 AM 43.0 °F - 43.0 °F 100% 30.18 in 1.2 mi Calm Calm - N/A   Overcast
12:44 AM 43.0 °F - 43.0 °F 100% 30.18 in 4.0 mi Calm Calm - N/A   Overcast
12:51 AM 43.0 °F - 42.1 °F 97% 30.18 in 8.0 mi Calm Calm - N/A   Mostly Cloudy
1:06 AM 42.8 °F - 42.8 °F 100% 30.17 in 5.0 mi Calm Calm - N/A   Mostly Cloudy
1:34 AM 41.0 °F - 41.0 °F 100% 30.16 in 6.0 mi Calm Calm - N/A   Scattered Clouds
1:51 AM 43.0 °F - 42.1 °F 97% 30.17 in 9.0 mi Calm Calm - N/A   Scattered Clouds
2:00 AM 43.0 °F - 42.1 °F 97% 30.16 in 5.0 mi Calm Calm - N/A   Mostly Cloudy
2:04 AM 44.1 °F - 43.0 °F 96% 30.16 in 1.5 mi Calm Calm - N/A   Mostly Cloudy
2:06 AM 44.1 °F - 43.0 °F 96% 30.16 in 0.8 mi Calm Calm - N/A   Mist
2:24 AM 43.0 °F - 43.0 °F 100% 30.15 in 0.2 mi Calm Calm - N/A Fog Fog
2:51 AM 44.1 °F - 44.1 °F 100% 30.15 in 0.2 mi Calm Calm - N/A Fog Fog
3:51 AM 43.0 °F 41.3 °F 43.0 °F 100% 30.15 in 0.2 mi ENE 3.5 mph - N/A Fog Fog
4:51 AM 42.1 °F 39.2 °F 42.1 °F 100% 30.15 in 0.2 mi ENE 4.6 mph - N/A Fog Fog
5:51 AM 43.0 °F - 43.0 °F 100% 30.14 in 0.2 mi Calm Calm - N/A Fog Fog
6:51 AM 42.1 °F 40.2 °F 42.1 °F 100% 30.15 in 0.2 mi ENE 3.5 mph - N/A Fog Fog
7:51 AM 42.1 °F - 42.1 °F 100% 30.15 in 0.2 mi Calm Calm - N/A Fog Fog
8:51 AM 44.1 °F - 44.1 °F 100% 30.14 in 0.2 mi Calm Calm - N/A Fog Fog
9:19 AM 46.0 °F - 46.0 °F 100% 30.13 in 0.8 mi Calm Calm - N/A   Overcast
9:27 AM 46.9 °F - 46.0 °F 97% 30.13 in 1.0 mi Calm Calm - N/A   Overcast
9:31 AM 48.0 °F - 46.9 °F 96% 30.13 in 2.0 mi Calm Calm - N/A   Mostly Cloudy
9:39 AM 48.9 °F - 46.9 °F 93% 30.12 in 10.0 mi Calm Calm - N/A   Scattered Clouds
9:51 AM 50.0 °F - 48.0 °F 93% 30.13 in 10.0 mi Calm Calm - N/A   Partly Cloudy
10:51 AM 59.0 °F - 46.9 °F 64% 30.10 in 10.0 mi Variable 5.8 mph - N/A   Clear
11:51 AM 63.0 °F - 43.0 °F 48% 30.09 in 10.0 mi NE 5.8 mph - N/A   Clear
12:51 PM 64.9 °F - 43.0 °F 45% 30.06 in 10.0 mi SE 5.8 mph - N/A   Clear
1:51 PM 66.0 °F - 45.0 °F 47% 30.03 in 10.0 mi Calm Calm - N/A   Clear
2:51 PM 66.0 °F - 46.9 °F 50% 30.00 in 10.0 mi SE 8.1 mph - N/A   Clear
3:51 PM 66.0 °F - 46.9 °F 50% 30.00 in 10.0 mi ESE 5.8 mph - N/A   Clear
4:51 PM 64.9 °F - 48.0 °F 54% 29.99 in 10.0 mi SSE 5.8 mph - N/A   Clear
5:51 PM 60.1 °F - 50.0 °F 69% 29.99 in 10.0 mi ESE 6.9 mph - N/A   Clear
6:51 PM 55.0 °F - 48.9 °F 80% 29.99 in 10.0 mi SE 5.8 mph - N/A   Clear
7:51 PM 52.0 °F - 48.0 °F 86% 29.99 in 10.0 mi ESE 4.6 mph - N/A   Scattered Clouds
8:02 PM 52.0 °F - 48.9 °F 89% 29.98 in 10.0 mi SE 3.5 mph - N/A   Mostly Cloudy
8:19 PM 52.0 °F - 48.9 °F 89% 29.99 in 10.0 mi SE 5.8 mph - N/A   Overcast
8:51 PM 52.0 °F - 48.0 °F 86% 29.99 in 10.0 mi ESE 4.6 mph - N/A   Overcast
9:51 PM 52.0 °F - 48.0 °F 86% 29.98 in 10.0 mi SSW 3.5 mph - N/A   Overcast
10:25 PM 51.1 °F - 48.9 °F 92% 29.97 in 3.0 mi SSW 3.5 mph - N/A   Overcast
10:32 PM 50.0 °F - 50.0 °F 100% 29.96 in 2.0 mi Calm Calm - N/A   Overcast
10:51 PM 51.8 °F - 50.0 °F 94% 29.95 in 2.0 mi Calm Calm - N/A   Overcast
11:00 PM 51.1 °F - 50.0 °F 96% 29.95 in 2.0 mi Calm Calm - N/A   Overcast
11:10 PM 51.1 °F - 50.0 °F 96% 29.94 in 1.5 mi Calm Calm - N/A   Overcast
11:28 PM 50.0 °F - 50.0 °F 100% 29.92 in 2.0 mi East 3.5 mph - N/A   Overcast
11:31 PM 51.1 °F - 50.0 °F 96% 29.92 in 1.8 mi Calm Calm - N/A   Overcast
11:41 PM 51.1 °F - 50.0 °F 96% 29.92 in 2.0 mi Calm Calm - N/A   Overcast
11:51 PM 51.1 °F - 50.0 °F 96% 29.93 in 4.0 mi Calm Calm - N/A   Overcast